Regional Weather Roundup
Issued by NWS

Home | Current Version | Previous Version | Graphics & Text | Print | Product List | Glossary On
Versions: 1 2 3 4 5 6 7 8 9 10 11 12 13 14 15 16 17 18 19 20 21 22 23 24 25 26 27 28 29 30 31 32 33 34 35 36 37 38 39 40 41 42 43 44 45 46 47 48 49 50
000
ASUS43 KBIS 190902
RWRND

NORTH DAKOTA REGIONAL WEATHER ROUNDUP
NATIONAL WEATHER SERVICE BISMARCK ND
400 AM CDT THU OCT 19 2017

NOTE: "FAIR" INDICATES FEW OR NO CLOUDS BELOW 12,000 FEET WITH NO
SIGNIFICANT WEATHER AND/OR OBSTRUCTIONS TO VISIBILITY.


NDZ001>003-009>011-017-191000-
NORTHWEST NORTH DAKOTA

CITY           SKY/WX    TMP DP  RH WIND       PRES   REMARKS
WILLISTON      CLOUDY    45  28  51 S7        29.75F
MINOT          CLOUDY    37  29  72 SE6       29.78F
MINOT AFB      CLOUDY    35  27  72 S8        29.77F
$$

NDZ018>021-031>035-040>046-191000-
SOUTHWEST NORTH DAKOTA

CITY           SKY/WX    TMP DP  RH WIND       PRES   REMARKS
BISMARCK       CLOUDY    40  28  62 E7        29.86F
DICKINSON      CLOUDY    42  26  53 S10       29.79F
GARRISON         N/A     36  30  79 CALM      29.82F
HETTINGER ARPT CLOUDY    33  24  69 CALM      29.85F
$$

NDZ004>008-012>016-024-026-027-054-191000-
NORTHEAST NORTH DAKOTA

CITY           SKY/WX    TMP DP  RH WIND       PRES   REMARKS
GRAND FORKS    CLOUDY    35  26  69 SW6       29.90F
GRND FRKS AFB  CLOUDY    37  25  62 SW8       29.90S
DEVILS LAKE    CLOUDY    42  30  62 SE5       29.88F
$$

NDZ022-023-025-028>030-036>039-047>053-191000-
SOUTHEAST NORTH DAKOTA

CITY           SKY/WX    TMP DP  RH WIND       PRES   REMARKS
FARGO          PTCLDY    39  28  64 S8        29.94F
JAMESTOWN      CLOUDY    36  27  69 S5        29.90F
$$





USA.gov is the U.S. government's official web portal to all federal, state and local government web resources and services.